Wind from 050 at 7 knots

Air temperature 2.0° C
Dewpoint -6.0° C

Last reported at 2014-Apr-23 05:20 UTC.
Time now 2014-Apr-23 06:47 UTC

Location: N 64°50' E 011°09'.
View on Google Maps.

See reports from other nearby stations

Tides Stations Pressure Air Temp Water Temp Dewpoint Dewpoint depression Visibility Wind Speed Wind Dir Waves Ship positions

  
sailing weather and tide predictions

RORVIK / RYUM weather

date/time (UTC)wind fromknots sea level pressurealtimeterstation pressurevisibilityair tempwater tempwave heightnotes
2014-Apr-23 05:20 050 7 2.0
2014-Apr-23 04:50 060 5 1.0
2014-Apr-23 04:20 060 6 1.0
2014-Apr-22 20:20 030 7 5.4 3.0
2014-Apr-22 19:50 040 7 5.4 3.0
2014-Apr-22 19:20 020 11 5.4 3.0
2014-Apr-22 18:50 030 9 5.4 4.0
2014-Apr-22 17:50 020 13 5.4 4.0
2014-Apr-22 17:20 020 12 5.4 5.0
2014-Apr-22 16:50 010 12 5.0
2014-Apr-22 15:20 020 14 6.0
2014-Apr-22 14:50 020 18 5.4 6.0
2014-Apr-22 13:50 030 12 5.4 6.0
2014-Apr-22 13:20 040 12 5.4 6.0
2014-Apr-22 12:50 040 13 5.4 6.0
2014-Apr-22 11:50 030 10 5.4 7.0
2014-Apr-22 11:20 010 11 5.4 6.0
2014-Apr-22 10:50 030 12 5.4 7.0
2014-Apr-22 10:20 020 12 5.4 6.0
2014-Apr-22 09:20 360 10 5.4 6.0 Showers in the vicinity.
2014-Apr-22 08:20 020 9 5.4 6.0
2014-Apr-22 07:50 010 8 5.4 7.0
2014-Apr-22 07:20 360 7 5.4 7.0
2014-Apr-22 06:50 360 7 5.4 6.0
2014-Apr-22 06:20 360 6 5.4 5.0
2014-Apr-22 05:20 360 5 5.4 4.0
2014-Apr-22 04:50 340 3 5.4 3.0
2014-Apr-22 04:20 330 2 5.4-0.0
2014-Apr-21 20:20 320 3 5.4 4.0
2014-Apr-21 19:50 330 3 5.4 5.0
2014-Apr-21 19:20 320 4 5.4 6.0
2014-Apr-21 18:50 310 3 5.4 6.0
2014-Apr-21 17:50 300 4 5.4 7.0
2014-Apr-21 16:50 290 5 5.4 7.0
2014-Apr-21 16:20 270 8 5.4 7.0
2014-Apr-21 15:50 250 9 5.4 8.0
2014-Apr-21 15:20 230 12 5.4 7.0
2014-Apr-21 14:50 230 11 5.4 7.0
2014-Apr-21 13:50 230 11 5.4 7.0
2014-Apr-21 13:20 220 11 5.4 7.0
2014-Apr-21 12:50 220 12 5.4 7.0 Light drizzle.
2014-Apr-21 11:50 220 12 5.4 7.0 Light drizzle.
2014-Apr-21 11:20 220 11 5.4 7.0
2014-Apr-21 10:50 230 13 5.4 7.0
2014-Apr-21 09:20 220 13 5.4 7.0
2014-Apr-21 08:50 200 9 8.0
2014-Apr-21 08:20 190 7 8.0
2014-Apr-21 07:50 180 7 8.0